Time,TemperatureF,DewpointF,PressureIn,WindDirection,WindDirectionDegrees,WindSpeedMPH,WindSpeedGustMPH,Humidity,HourlyPrecipIn,Conditions,Clouds,dailyrainin,SoftwareType,DateUTC
2013-03-11 00:00:00,49.3,24.7,30.12,SW,225,1.8,4.5,38,0.00,,,0.00,WUHU216HW,2013-03-11 04:00:00,
2013-03-11 00:05:00,49.3,24.7,30.13,SSE,158,3.6,5.1,38,0.00,,,0.00,WUHU216HW,2013-03-11 04:05:00,
2013-03-11 00:10:00,49.3,24.7,30.12,SSW,203,3.4,5.1,38,0.00,,,0.00,WUHU216HW,2013-03-11 04:10:00,
2013-03-11 00:15:00,49.5,24.9,30.12,SSW,203,2.5,6.3,38,0.00,,,0.00,WUHU216HW,2013-03-11 04:15:00,
2013-03-11 00:20:00,49.7,24.9,30.11,SSE,158,2.9,8.7,38,0.00,,,0.00,WUHU216HW,2013-03-11 04:20:00,
2013-03-11 00:25:00,49.5,24.9,30.11,SSE,158,3.8,8.7,38,0.00,,,0.00,WUHU216HW,2013-03-11 04:25:00,
2013-03-11 00:30:00,49.5,24.9,30.11,SSE,158,4.7,4.9,38,0.00,,,0.00,WUHU216HW,2013-03-11 04:30:00,
2013-03-11 00:35:00,49.3,24.7,30.11,South,180,3.8,5.8,38,0.00,,,0.00,WUHU216HW,2013-03-11 04:35:00,
2013-03-11 00:40:00,49.3,24.7,30.11,South,180,2.5,5.8,38,0.00,,,0.00,WUHU216HW,2013-03-11 04:40:00,
2013-03-11 00:45:00,49.3,24.7,30.12,SSE,158,4.7,5.4,38,0.00,,,0.00,WUHU216HW,2013-03-11 04:45:00,
2013-03-11 00:50:00,49.3,24.7,30.12,South,180,2.7,6.9,38,0.00,,,0.00,WUHU216HW,2013-03-11 04:50:00,
2013-03-11 00:55:00,49.1,24.5,30.12,South,180,4.0,6.9,38,0.00,,,0.00,WUHU216HW,2013-03-11 04:55:00,
2013-03-11 01:00:00,49.0,24.3,30.12,SSE,158,2.7,5.4,38,0.00,,,0.00,WUHU216HW,2013-03-11 05:00:00,
2013-03-11 01:05:00,48.8,24.1,30.12,SSE,158,5.4,5.4,38,0.00,,,0.00,WUHU216HW,2013-03-11 05:05:00,
2013-03-11 01:10:00,48.6,24.0,30.12,SE,135,2.5,5.4,38,0.00,,,0.00,WUHU216HW,2013-03-11 05:10:00,
2013-03-11 01:15:00,48.6,24.0,30.13,SSW,203,2.5,4.7,38,0.00,,,0.00,WUHU216HW,2013-03-11 05:15:00,
2013-03-11 01:20:00,48.6,24.0,30.12,SE,135,2.5,4.0,38,0.00,,,0.00,WUHU216HW,2013-03-11 05:20:00,
2013-03-11 01:25:00,48.4,23.9,30.11,South,180,2.5,3.8,38,0.00,,,0.00,WUHU216HW,2013-03-11 05:25:00,
2013-03-11 01:30:00,48.4,23.9,30.11,SSW,203,4.0,4.0,38,0.00,,,0.00,WUHU216HW,2013-03-11 05:30:00,
2013-03-11 01:35:00,48.2,23.7,30.10,SSE,158,3.4,4.0,38,0.00,,,0.00,WUHU216HW,2013-03-11 05:35:00,
2013-03-11 01:40:00,47.9,24.0,30.10,SE,135,4.3,4.3,39,0.00,,,0.00,WUHU216HW,2013-03-11 05:40:00,
2013-03-11 01:45:00,47.7,23.9,30.10,SW,225,1.6,4.3,39,0.00,,,0.00,WUHU216HW,2013-03-11 05:45:00,
2013-03-11 01:50:00,47.5,23.7,30.10,SE,135,1.8,3.4,39,0.00,,,0.00,WUHU216HW,2013-03-11 05:50:00,
2013-03-11 01:55:00,47.3,24.2,30.10,South,180,3.4,3.4,40,0.00,,,0.00,WUHU216HW,2013-03-11 05:55:00,
2013-03-11 02:00:00,47.2,24.0,30.10,SSW,203,0.7,3.4,40,0.00,,,0.00,WUHU216HW,2013-03-11 06:00:00,
2013-03-11 02:05:00,47.0,23.9,30.10,SE,135,1.8,2.5,40,0.00,,,0.00,WUHU216HW,2013-03-11 06:05:00,
2013-03-11 02:10:00,47.0,23.9,30.10,SSW,203,2.9,5.4,40,0.00,,,0.00,WUHU216HW,2013-03-11 06:10:00,
2013-03-11 02:15:00,46.8,23.8,30.10,SSE,158,2.5,5.4,40,0.00,,,0.00,WUHU216HW,2013-03-11 06:15:00,
2013-03-11 02:20:00,46.8,24.3,30.10,South,180,4.7,4.7,41,0.00,,,0.00,WUHU216HW,2013-03-11 06:20:00,
2013-03-11 02:26:00,46.6,24.1,30.10,South,180,0.4,4.7,41,0.00,,,0.00,WUHU216HW,2013-03-11 06:26:00,
2013-03-11 02:31:00,46.4,24.5,30.10,SW,225,2.5,2.5,42,0.00,,,0.00,WUHU216HW,2013-03-11 06:31:00,
2013-03-11 02:36:00,46.3,24.3,30.10,SW,225,2.2,3.8,42,0.00,,,0.00,WUHU216HW,2013-03-11 06:36:00,
2013-03-11 02:41:00,46.1,24.1,30.09,SSE,158,3.1,3.8,42,0.00,,,0.00,WUHU216HW,2013-03-11 06:41:00,
2013-03-11 02:47:00,45.9,24.0,30.09,SE,135,1.8,3.1,42,0.00,,,0.00,WUHU216HW,2013-03-11 06:47:00,
2013-03-11 02:52:00,45.7,24.4,30.09,SSW,203,1.1,2.5,43,0.00,,,0.00,WUHU216HW,2013-03-11 06:52:00,
2013-03-11 02:57:00,45.7,24.9,30.09,SSE,158,1.1,3.1,44,0.00,,,0.00,WUHU216HW,2013-03-11 06:57:00,
2013-03-11 03:02:00,45.7,24.9,30.09,SSW,203,2.5,3.6,44,0.00,,,0.00,WUHU216HW,2013-03-11 07:02:00,
2013-03-11 03:07:00,45.7,24.9,30.08,South,180,2.7,3.6,44,0.00,,,0.00,WUHU216HW,2013-03-11 07:07:00,
2013-03-11 03:12:00,45.7,25.5,30.08,South,180,1.3,3.4,45,0.00,,,0.00,WUHU216HW,2013-03-11 07:12:00,
2013-03-11 03:17:00,45.7,25.5,30.08,SSW,203,1.6,3.4,45,0.00,,,0.00,WUHU216HW,2013-03-11 07:17:00,
2013-03-11 03:22:00,45.7,26.0,30.08,SSW,203,2.2,3.1,46,0.00,,,0.00,WUHU216HW,2013-03-11 07:22:00,
2013-03-11 03:27:00,45.7,26.0,30.08,SSE,158,1.8,2.9,46,0.00,,,0.00,WUHU216HW,2013-03-11 07:27:00,
2013-03-11 03:32:00,45.7,25.5,30.08,SSE,158,1.1,2.9,45,0.00,,,0.00,WUHU216HW,2013-03-11 07:32:00,
2013-03-11 03:37:00,45.7,26.0,30.08,SSE,158,2.9,4.0,46,0.00,,,0.00,WUHU216HW,2013-03-11 07:37:00,
2013-03-11 03:42:00,45.7,26.6,30.08,South,180,2.0,4.0,47,0.00,,,0.00,WUHU216HW,2013-03-11 07:42:00,
2013-03-11 03:47:00,45.7,26.0,30.07,SE,135,3.4,4.0,46,0.00,,,0.00,WUHU216HW,2013-03-11 07:47:00,
2013-03-11 03:52:00,45.7,26.6,30.07,SSE,158,1.8,4.5,47,0.00,,,0.00,WUHU216HW,2013-03-11 07:52:00,
2013-03-11 03:58:00,45.7,26.6,30.07,ESE,113,1.1,4.5,47,0.00,,,0.00,WUHU216HW,2013-03-11 07:58:00,
2013-03-11 04:03:00,45.5,26.4,30.06,SSE,158,2.9,4.3,47,0.00,,,0.00,WUHU216HW,2013-03-11 08:03:00,
2013-03-11 04:08:00,45.5,26.4,30.06,SSE,158,4.0,4.3,47,0.00,,,0.00,WUHU216HW,2013-03-11 08:08:00,
2013-03-11 04:13:00,45.5,26.9,30.06,SE,135,1.3,4.0,48,0.00,,,0.00,WUHU216HW,2013-03-11 08:13:00,
2013-03-11 04:18:00,45.5,26.9,30.05,East,90,1.3,2.9,48,0.00,,,0.00,WUHU216HW,2013-03-11 08:18:00,
2013-03-11 04:23:00,45.5,27.5,30.05,SSW,203,3.4,3.4,49,0.00,,,0.00,WUHU216HW,2013-03-11 08:23:00,
2013-03-11 04:28:00,45.5,27.5,30.05,SE,135,0.0,3.4,49,0.00,,,0.00,WUHU216HW,2013-03-11 08:28:00,
2013-03-11 04:33:00,45.5,28.0,30.05,SSW,203,2.5,3.6,50,0.00,,,0.00,WUHU216HW,2013-03-11 08:33:00,
2013-03-11 04:38:00,45.5,27.5,30.05,SSW,203,1.8,3.6,49,0.00,,,0.00,WUHU216HW,2013-03-11 08:38:00,
2013-03-11 04:43:00,45.4,27.3,30.05,South,180,3.6,3.6,49,0.00,,,0.00,WUHU216HW,2013-03-11 08:43:00,
2013-03-11 04:48:00,45.4,27.3,30.05,SSE,158,3.1,6.5,49,0.00,,,0.00,WUHU216HW,2013-03-11 08:48:00,
2013-03-11 04:53:00,45.4,27.8,30.04,SSE,158,2.7,6.5,50,0.00,,,0.00,WUHU216HW,2013-03-11 08:53:00,
2013-03-11 04:58:00,45.2,28.1,30.04,South,180,3.1,3.8,51,0.00,,,0.00,WUHU216HW,2013-03-11 08:58:00,
2013-03-11 05:03:00,45.2,28.1,30.04,SSE,158,4.9,4.9,51,0.00,,,0.00,WUHU216HW,2013-03-11 09:03:00,
2013-03-11 05:08:00,45.0,28.9,30.04,SE,135,1.8,4.9,53,0.00,,,0.00,WUHU216HW,2013-03-11 09:08:00,
2013-03-11 05:13:00,45.0,29.8,30.04,SE,135,6.5,6.5,55,0.00,,,0.00,WUHU216HW,2013-03-11 09:13:00,
2013-03-11 05:18:00,44.8,29.6,30.04,SSE,158,3.4,6.5,55,0.00,,,0.00,WUHU216HW,2013-03-11 09:18:00,
2013-03-11 05:23:00,44.6,29.4,30.04,SE,135,4.5,5.1,55,0.00,,,0.00,WUHU216HW,2013-03-11 09:23:00,
2013-03-11 05:28:00,44.5,28.8,30.04,SE,135,4.0,5.8,54,0.00,,,0.00,WUHU216HW,2013-03-11 09:28:00,
2013-03-11 05:33:00,44.3,29.5,30.04,SE,135,3.1,5.8,56,0.00,,,0.00,WUHU216HW,2013-03-11 09:33:00,
2013-03-11 05:38:00,44.3,30.0,30.04,ESE,113,2.7,5.6,57,0.00,,,0.00,WUHU216HW,2013-03-11 09:38:00,
2013-03-11 05:43:00,44.1,30.7,30.04,SSE,158,4.0,4.3,59,0.00,,,0.00,WUHU216HW,2013-03-11 09:43:00,
2013-03-11 05:48:00,43.9,31.0,30.04,NW,315,0.4,4.3,60,0.00,,,0.00,WUHU216HW,2013-03-11 09:48:00,
2013-03-11 05:53:00,43.7,30.8,30.04,SW,225,1.8,3.4,60,0.00,,,0.00,WUHU216HW,2013-03-11 09:53:00,
2013-03-11 05:58:00,43.6,30.6,30.04,WSW,248,2.0,4.0,60,0.00,,,0.00,WUHU216HW,2013-03-11 09:58:00,
2013-03-11 06:03:00,43.6,31.0,30.04,SSW,203,2.5,4.7,61,0.00,,,0.00,WUHU216HW,2013-03-11 10:03:00,
2013-03-11 06:08:00,43.6,31.0,30.04,SE,135,2.5,5.4,61,0.00,,,0.00,WUHU216HW,2013-03-11 10:08:00,
2013-03-11 06:13:00,43.6,31.4,30.04,SSE,158,3.4,6.3,62,0.00,,,0.00,WUHU216HW,2013-03-11 10:13:00,
2013-03-11 06:18:00,43.6,31.8,30.04,ESE,113,2.9,7.6,63,0.00,,,0.00,WUHU216HW,2013-03-11 10:18:00,
2013-03-11 06:23:00,43.4,31.2,30.04,SE,135,2.5,7.6,62,0.00,,,0.00,WUHU216HW,2013-03-11 10:23:00,
2013-03-11 06:28:00,43.4,31.2,30.04,SSE,158,2.0,6.3,62,0.00,,,0.00,WUHU216HW,2013-03-11 10:28:00,
2013-03-11 06:34:00,43.4,31.6,30.04,SSW,203,1.8,5.4,63,0.00,,,0.00,WUHU216HW,2013-03-11 10:34:00,
2013-03-11 06:39:00,43.4,31.6,30.03,SSE,158,3.6,5.4,63,0.00,,,0.00,WUHU216HW,2013-03-11 10:39:00,
2013-03-11 06:44:00,43.4,31.6,30.04,SE,135,4.5,6.5,63,0.00,,,0.00,WUHU216HW,2013-03-11 10:44:00,
2013-03-11 06:49:00,43.4,31.6,30.03,SSE,158,4.9,6.9,63,0.00,,,0.00,WUHU216HW,2013-03-11 10:49:00,
2013-03-11 06:54:00,43.2,31.4,30.04,SW,225,4.0,6.9,63,0.00,,,0.00,WUHU216HW,2013-03-11 10:54:00,
2013-03-11 06:59:00,43.2,31.4,30.04,SSE,158,4.7,6.9,63,0.00,,,0.00,WUHU216HW,2013-03-11 10:59:00,
2013-03-11 07:03:00,43.2,31.8,30.04,SSE,158,5.8,6.9,64,0.00,,,0.00,WUHU216HW,2013-03-11 11:03:00,
2013-03-11 07:08:00,43.2,31.8,30.04,South,180,2.7,6.0,64,0.00,,,0.00,WUHU216HW,2013-03-11 11:08:00,
2013-03-11 07:13:00,43.0,31.7,30.04,SSW,203,5.4,6.9,64,0.00,,,0.00,WUHU216HW,2013-03-11 11:13:00,
2013-03-11 07:18:00,42.8,31.9,30.04,SSE,158,2.9,6.9,65,0.00,,,0.00,WUHU216HW,2013-03-11 11:18:00,
2013-03-11 07:23:00,42.7,31.7,30.04,SSE,158,4.0,5.4,65,0.00,,,0.00,WUHU216HW,2013-03-11 11:23:00,
2013-03-11 07:29:00,42.7,31.7,30.04,SE,135,2.5,5.8,65,0.00,,,0.00,WUHU216HW,2013-03-11 11:29:00,
2013-03-11 07:33:00,42.5,32.0,30.04,SE,135,4.7,6.3,66,0.00,,,0.00,WUHU216HW,2013-03-11 11:33:00,
2013-03-11 07:38:00,42.5,32.0,30.05,SE,135,2.7,6.3,66,0.00,,,0.00,WUHU216HW,2013-03-11 11:38:00,
2013-03-11 07:43:00,42.7,32.0,30.05,South,180,3.6,6.3,66,0.00,,,0.00,WUHU216HW,2013-03-11 11:43:00,
2013-03-11 07:48:00,42.7,32.0,30.04,SSE,158,3.8,6.9,66,0.00,,,0.00,WUHU216HW,2013-03-11 11:48:00,
2013-03-11 07:53:00,42.7,32.9,30.05,SSE,158,4.9,6.9,68,0.00,,,0.00,WUHU216HW,2013-03-11 11:53:00,
2013-03-11 07:59:00,42.7,32.9,30.05,SSW,203,4.0,5.1,68,0.00,,,0.00,WUHU216HW,2013-03-11 11:59:00,
2013-03-11 08:03:00,42.8,33.5,30.05,SSW,203,2.7,5.8,69,0.00,,,0.00,WUHU216HW,2013-03-11 12:03:00,
2013-03-11 08:09:00,42.8,32.7,30.05,South,180,4.3,5.8,67,0.00,,,0.00,WUHU216HW,2013-03-11 12:09:00,
2013-03-11 08:14:00,42.8,33.0,30.05,SE,135,1.3,5.6,68,0.00,,,0.00,WUHU216HW,2013-03-11 12:14:00,
2013-03-11 08:19:00,42.8,32.7,30.05,SSE,158,3.8,7.6,67,0.00,,,0.00,WUHU216HW,2013-03-11 12:19:00,
2013-03-11 08:24:00,42.8,32.2,30.05,South,180,2.2,7.6,66,0.00,,,0.00,WUHU216HW,2013-03-11 12:24:00,
2013-03-11 08:29:00,42.8,33.0,30.05,SSW,203,6.3,6.7,68,0.00,,,0.00,WUHU216HW,2013-03-11 12:29:00,
2013-03-11 08:34:00,42.8,33.0,30.05,SSW,203,2.5,6.7,68,0.00,,,0.00,WUHU216HW,2013-03-11 12:34:00,
2013-03-11 08:39:00,43.0,33.2,30.05,SE,135,3.4,5.6,68,0.00,,,0.00,WUHU216HW,2013-03-11 12:39:00,
2013-03-11 08:44:00,43.0,32.9,30.05,SE,135,1.8,3.4,67,0.00,,,0.00,WUHU216HW,2013-03-11 12:44:00,
2013-03-11 08:49:00,43.2,33.0,30.05,SSW,203,2.5,3.1,67,0.00,,,0.00,WUHU216HW,2013-03-11 12:49:00,
2013-03-11 08:54:00,43.4,33.1,30.05,SSE,158,1.8,3.1,67,0.00,,,0.00,WUHU216HW,2013-03-11 12:54:00,
2013-03-11 08:58:00,43.6,33.3,30.05,SSE,158,1.8,3.1,67,0.00,,,0.00,WUHU216HW,2013-03-11 12:58:00,
2013-03-11 09:03:00,43.7,33.5,30.06,South,180,2.0,4.0,67,0.00,,,0.00,WUHU216HW,2013-03-11 13:03:00,
2013-03-11 09:08:00,43.7,32.8,30.05,SSW,203,3.6,4.0,65,0.00,,,0.00,WUHU216HW,2013-03-11 13:08:00,
2013-03-11 09:14:00,44.1,33.5,30.05,SSE,158,2.7,4.9,66,0.00,,,0.00,WUHU216HW,2013-03-11 13:14:00,
2013-03-11 09:19:00,44.3,33.2,30.05,South,180,2.0,6.5,65,0.00,,,0.00,WUHU216HW,2013-03-11 13:19:00,
2013-03-11 09:24:00,44.5,33.0,30.05,SSE,158,3.4,6.5,64,0.00,,,0.00,WUHU216HW,2013-03-11 13:24:00,
2013-03-11 09:29:00,44.8,33.4,30.05,East,90,3.4,5.4,64,0.00,,,0.00,WUHU216HW,2013-03-11 13:29:00,
2013-03-11 09:34:00,45.2,33.3,30.05,SSW,203,2.2,5.4,63,0.00,,,0.00,WUHU216HW,2013-03-11 13:34:00,
2013-03-11 09:39:00,45.5,33.7,30.05,SE,135,3.1,5.4,63,0.00,,,0.00,WUHU216HW,2013-03-11 13:39:00,
2013-03-11 09:44:00,45.7,33.4,30.05,SSE,158,1.6,6.5,62,0.00,,,0.00,WUHU216HW,2013-03-11 13:44:00,
2013-03-11 09:49:00,45.9,33.6,30.05,SSW,203,4.5,6.5,62,0.00,,,0.00,WUHU216HW,2013-03-11 13:49:00,
2013-03-11 09:54:00,46.3,33.9,30.05,SSE,158,4.0,4.7,62,0.00,,,0.00,WUHU216HW,2013-03-11 13:54:00,
2013-03-11 09:59:00,46.4,33.7,30.05,South,180,4.3,4.3,61,0.00,,,0.00,WUHU216HW,2013-03-11 13:59:00,
2013-03-11 10:04:00,46.8,34.0,30.05,South,180,2.7,4.3,61,0.00,,,0.00,WUHU216HW,2013-03-11 14:04:00,
2013-03-11 10:09:00,47.0,33.8,30.05,SSE,158,3.1,3.8,60,0.00,,,0.00,WUHU216HW,2013-03-11 14:09:00,
2013-03-11 10:14:00,47.2,34.4,30.04,SE,135,2.9,3.8,61,0.00,,,0.00,WUHU216HW,2013-03-11 14:14:00,
2013-03-11 10:19:00,47.2,34.4,30.04,SSE,158,4.0,4.0,61,0.00,,,0.00,WUHU216HW,2013-03-11 14:19:00,
2013-03-11 10:24:00,47.5,34.7,30.05,SSW,203,3.6,4.3,61,0.00,,,0.00,WUHU216HW,2013-03-11 14:24:00,
2013-03-11 10:29:00,47.9,35.1,30.05,SSE,158,2.5,4.3,61,0.00,,,0.00,WUHU216HW,2013-03-11 14:29:00,
2013-03-11 10:34:00,48.2,35.1,30.05,SSE,158,4.0,5.4,60,0.00,,,0.00,WUHU216HW,2013-03-11 14:34:00,
2013-03-11 10:39:00,48.4,34.8,30.05,SSE,158,4.0,5.4,59,0.00,,,0.00,WUHU216HW,2013-03-11 14:39:00,
2013-03-11 10:44:00,48.6,34.9,30.05,SE,135,4.5,5.4,59,0.00,,,0.00,WUHU216HW,2013-03-11 14:44:00,
2013-03-11 10:49:00,48.8,34.7,30.05,South,180,3.4,5.4,58,0.00,,,0.00,WUHU216HW,2013-03-11 14:49:00,
2013-03-11 10:54:00,49.0,34.8,30.05,South,180,3.4,4.7,58,0.00,,,0.00,WUHU216HW,2013-03-11 14:54:00,
2013-03-11 10:59:00,49.5,35.3,30.05,ESE,113,1.8,4.7,58,0.00,,,0.00,WUHU216HW,2013-03-11 14:59:00,
2013-03-11 11:04:00,50.0,35.4,30.04,SE,135,2.7,4.5,57,0.00,,,0.00,WUHU216HW,2013-03-11 15:04:00,
2013-03-11 11:09:00,50.6,34.9,30.04,SSW,203,2.5,4.5,55,0.00,,,0.00,WUHU216HW,2013-03-11 15:09:00,
2013-03-11 11:14:00,51.1,35.9,30.04,SSE,158,6.0,6.0,56,0.00,,,0.00,WUHU216HW,2013-03-11 15:14:00,
2013-03-11 11:19:00,51.7,35.9,30.04,SE,135,3.4,6.0,55,0.00,,,0.00,WUHU216HW,2013-03-11 15:19:00,
2013-03-11 11:24:00,52.2,35.1,30.04,SSW,203,3.6,4.7,52,0.00,,,0.00,WUHU216HW,2013-03-11 15:24:00,
2013-03-11 11:29:00,52.6,36.4,30.04,SE,135,2.7,4.7,54,0.00,,,0.00,WUHU216HW,2013-03-11 15:29:00,
2013-03-11 11:34:00,53.3,36.6,30.04,SE,135,4.0,5.4,53,0.00,,,0.00,WUHU216HW,2013-03-11 15:34:00,
2013-03-11 11:39:00,53.6,35.9,30.04,SSW,203,1.8,5.4,51,0.00,,,0.00,WUHU216HW,2013-03-11 15:39:00,
2013-03-11 11:44:00,54.2,36.5,30.03,South,180,2.9,6.3,51,0.00,,,0.00,WUHU216HW,2013-03-11 15:44:00,
2013-03-11 11:49:00,54.4,35.0,30.03,SSW,203,2.9,6.3,48,0.00,,,0.00,WUHU216HW,2013-03-11 15:49:00,
2013-03-11 11:54:00,54.4,35.0,30.02,SSE,158,3.4,4.7,48,0.00,,,0.00,WUHU216HW,2013-03-11 15:54:00,
2013-03-11 11:59:00,54.4,35.0,30.02,SSW,203,3.8,4.7,48,0.00,,,0.00,WUHU216HW,2013-03-11 15:59:00,
2013-03-11 12:04:00,54.9,36.0,30.02,East,90,1.6,4.5,49,0.00,,,0.00,WUHU216HW,2013-03-11 16:04:00,
2013-03-11 12:09:00,55.3,35.8,30.02,ESE,113,3.4,4.5,48,0.00,,,0.00,WUHU216HW,2013-03-11 16:09:00,
2013-03-11 12:14:00,55.6,35.0,30.02,SSW,203,3.4,4.5,46,0.00,,,0.00,WUHU216HW,2013-03-11 16:14:00,
2013-03-11 12:19:00,55.4,35.4,30.02,ESE,113,5.4,6.3,47,0.00,,,0.00,WUHU216HW,2013-03-11 16:19:00,
2013-03-11 12:24:00,55.6,35.6,30.02,SSW,203,2.7,6.3,47,0.00,,,0.00,WUHU216HW,2013-03-11 16:24:00,
2013-03-11 12:29:00,55.8,35.7,30.02,SSE,158,4.7,5.1,47,0.00,,,0.00,WUHU216HW,2013-03-11 16:29:00,
2013-03-11 12:34:00,56.2,36.6,30.02,SE,135,2.5,5.1,48,0.00,,,0.00,WUHU216HW,2013-03-11 16:34:00,
2013-03-11 12:39:00,56.3,35.1,30.02,SE,135,6.9,6.9,45,0.00,,,0.00,WUHU216HW,2013-03-11 16:39:00,
2013-03-11 12:44:00,56.3,35.1,30.02,SSE,158,2.9,6.9,45,0.00,,,0.00,WUHU216HW,2013-03-11 16:44:00,
2013-03-11 12:49:00,56.2,35.6,30.02,SW,225,2.5,4.0,46,0.00,,,0.00,WUHU216HW,2013-03-11 16:49:00,
2013-03-11 12:54:00,56.3,35.1,30.01,South,180,2.7,4.3,45,0.00,,,0.00,WUHU216HW,2013-03-11 16:54:00,
2013-03-11 12:59:00,56.5,35.3,30.01,SE,135,2.2,5.8,45,0.00,,,0.00,WUHU216HW,2013-03-11 16:59:00,
2013-03-11 13:04:00,56.5,34.7,30.01,SSW,203,1.8,5.8,44,0.00,,,0.00,WUHU216HW,2013-03-11 17:04:00,
2013-03-11 13:09:00,56.3,35.1,30.01,South,180,4.7,5.1,45,0.00,,,0.00,WUHU216HW,2013-03-11 17:09:00,
2013-03-11 13:14:00,56.5,35.3,30.00,SSW,203,4.7,5.1,45,0.00,,,0.00,WUHU216HW,2013-03-11 17:14:00,
2013-03-11 13:19:00,56.5,34.7,30.00,SE,135,3.4,6.3,44,0.00,,,0.00,WUHU216HW,2013-03-11 17:19:00,
2013-03-11 13:24:00,56.5,35.3,29.99,SSE,158,4.7,6.9,45,0.00,,,0.00,WUHU216HW,2013-03-11 17:24:00,
2013-03-11 13:29:00,56.5,35.3,29.99,SSE,158,4.7,6.9,45,0.00,,,0.00,WUHU216HW,2013-03-11 17:29:00,
2013-03-11 13:34:00,56.7,34.9,29.99,SSW,203,2.7,7.4,44,0.00,,,0.00,WUHU216HW,2013-03-11 17:34:00,
2013-03-11 13:39:00,56.5,35.3,30.00,SSE,158,6.3,7.4,45,0.00,,,0.00,WUHU216HW,2013-03-11 17:39:00,
2013-03-11 13:44:00,56.5,34.2,29.99,South,180,3.6,6.3,43,0.00,,,0.00,WUHU216HW,2013-03-11 17:44:00,
2013-03-11 13:49:00,56.5,33.0,29.99,SSE,158,4.7,6.9,41,0.00,,,0.00,WUHU216HW,2013-03-11 17:49:00,
2013-03-11 13:54:00,56.0,33.1,29.99,WSW,248,1.1,6.9,42,0.00,,,0.00,WUHU216HW,2013-03-11 17:54:00,
2013-03-11 13:59:00,55.8,33.5,29.98,SE,135,6.0,6.0,43,0.00,,,0.00,WUHU216HW,2013-03-11 17:59:00,
2013-03-11 14:04:00,56.2,33.3,29.98,SSE,158,5.4,6.0,42,0.00,,,0.00,WUHU216HW,2013-03-11 18:04:00,
2013-03-11 14:09:00,56.2,33.3,29.97,ESE,113,3.4,9.6,42,0.00,,,0.00,WUHU216HW,2013-03-11 18:09:00,
2013-03-11 14:14:00,56.2,33.8,29.97,SE,135,3.6,9.6,43,0.00,,,0.00,WUHU216HW,2013-03-11 18:14:00,
2013-03-11 14:19:00,56.2,33.3,29.97,SSE,158,3.1,6.0,42,0.00,,,0.00,WUHU216HW,2013-03-11 18:19:00,
2013-03-11 14:24:00,56.5,33.6,29.96,SSW,203,1.3,6.0,42,0.00,,,0.00,WUHU216HW,2013-03-11 18:24:00,
2013-03-11 14:29:00,57.1,34.7,29.96,SSE,158,6.5,7.4,43,0.00,,,0.00,WUHU216HW,2013-03-11 18:29:00,
2013-03-11 14:34:00,58.0,34.4,29.96,SSW,203,5.1,9.8,41,0.00,,,0.00,WUHU216HW,2013-03-11 18:34:00,
2013-03-11 14:39:00,59.2,34.9,29.97,SW,225,5.8,9.8,40,0.00,,,0.00,WUHU216HW,2013-03-11 18:39:00,
2013-03-11 14:44:00,59.8,33.3,29.96,West,270,5.4,9.8,37,0.00,,,0.00,WUHU216HW,2013-03-11 18:44:00,
2013-03-11 14:49:00,59.4,33.7,29.96,SE,135,4.5,9.8,38,0.00,,,0.00,WUHU216HW,2013-03-11 18:49:00,
2013-03-11 14:54:00,59.0,34.0,29.96,SSE,158,4.7,8.3,39,0.00,,,0.00,WUHU216HW,2013-03-11 18:54:00,
2013-03-11 14:59:00,59.2,34.2,29.96,South,180,7.6,8.9,39,0.00,,,0.00,WUHU216HW,2013-03-11 18:59:00,
2013-03-11 15:04:00,59.0,34.7,29.94,SSE,158,5.4,8.9,40,0.00,,,0.00,WUHU216HW,2013-03-11 19:04:00,
2013-03-11 15:09:00,58.9,34.6,29.94,SE,135,5.1,12.1,40,0.00,,,0.00,WUHU216HW,2013-03-11 19:09:00,
2013-03-11 15:14:00,58.3,34.7,29.94,SSE,158,4.3,12.1,41,0.00,,,0.00,WUHU216HW,2013-03-11 19:14:00,
2013-03-11 15:19:00,58.3,35.8,29.95,SSE,158,3.8,6.7,43,0.00,,,0.00,WUHU216HW,2013-03-11 19:19:00,
2013-03-11 15:24:00,58.1,35.6,29.95,SSE,158,9.8,9.8,43,0.00,,,0.00,WUHU216HW,2013-03-11 19:24:00,
2013-03-11 15:29:00,58.0,36.1,29.94,SSE,158,6.9,9.8,44,0.00,,,0.00,WUHU216HW,2013-03-11 19:29:00,
2013-03-11 15:34:00,58.0,36.6,29.94,South,180,6.9,8.5,45,0.00,,,0.00,WUHU216HW,2013-03-11 19:34:00,
2013-03-11 15:39:00,57.6,36.9,29.94,SSE,158,4.7,8.1,46,0.00,,,0.00,WUHU216HW,2013-03-11 19:39:00,
2013-03-11 15:44:00,57.4,37.4,29.94,SSE,158,3.6,7.6,47,0.00,,,0.00,WUHU216HW,2013-03-11 19:44:00,
2013-03-11 15:49:00,57.2,37.7,29.94,SSE,158,7.6,7.6,48,0.00,,,0.00,WUHU216HW,2013-03-11 19:49:00,
2013-03-11 15:54:00,57.2,38.4,29.94,SE,135,4.3,9.8,49,0.00,,,0.00,WUHU216HW,2013-03-11 19:54:00,
2013-03-11 15:59:00,57.2,39.3,29.93,SSE,158,6.9,9.8,51,0.00,,,0.00,WUHU216HW,2013-03-11 19:59:00,
2013-03-11 16:04:00,57.2,39.8,29.93,SSE,158,6.5,8.5,52,0.00,,,0.00,WUHU216HW,2013-03-11 20:04:00,
2013-03-11 16:09:00,57.2,40.8,29.92,SSW,203,3.6,8.1,54,0.00,,,0.00,WUHU216HW,2013-03-11 20:09:00,
2013-03-11 16:14:00,57.2,41.2,29.93,SSE,158,6.9,8.1,55,0.00,,,0.00,WUHU216HW,2013-03-11 20:14:00,
2013-03-11 16:20:00,57.1,41.5,29.92,SSE,158,8.9,14.3,56,0.00,,,0.00,WUHU216HW,2013-03-11 20:20:00,
2013-03-11 16:25:00,56.9,41.8,29.92,SSE,158,9.8,14.3,57,0.00,,,0.00,WUHU216HW,2013-03-11 20:25:00,
2013-03-11 16:30:00,56.7,42.1,29.92,SSW,203,8.1,9.8,58,0.00,,,0.00,WUHU216HW,2013-03-11 20:30:00,
2013-03-11 16:35:00,56.7,42.6,29.92,SSE,158,3.6,8.5,59,0.00,,,0.00,WUHU216HW,2013-03-11 20:35:00,
2013-03-11 16:40:00,56.5,43.2,29.91,SSW,203,6.0,8.5,61,0.00,,,0.00,WUHU216HW,2013-03-11 20:40:00,
2013-03-11 16:45:00,56.5,44.0,29.91,SE,135,6.5,7.8,63,0.00,,,0.00,WUHU216HW,2013-03-11 20:45:00,
2013-03-11 16:50:00,56.2,43.3,29.91,SE,135,5.1,10.3,62,0.00,,,0.00,WUHU216HW,2013-03-11 20:50:00,
2013-03-11 16:55:00,56.0,43.6,29.90,South,180,4.0,10.3,63,0.00,,,0.00,WUHU216HW,2013-03-11 20:55:00,
2013-03-11 17:00:00,55.8,43.4,29.90,SSW,203,2.7,9.8,63,0.00,,,0.00,WUHU216HW,2013-03-11 21:00:00,
2013-03-11 17:05:00,55.8,43.4,29.90,SSE,158,7.6,7.6,63,0.00,,,0.00,WUHU216HW,2013-03-11 21:05:00,
2013-03-11 17:10:00,55.4,43.0,29.90,SE,135,4.5,8.5,63,0.00,,,0.00,WUHU216HW,2013-03-11 21:10:00,
2013-03-11 17:15:00,55.3,42.9,29.90,SSE,158,4.9,8.5,63,0.00,,,0.00,WUHU216HW,2013-03-11 21:15:00,
2013-03-11 17:20:00,55.1,42.7,29.91,South,180,3.8,9.2,63,0.00,,,0.00,WUHU216HW,2013-03-11 21:20:00,
2013-03-11 17:25:00,55.1,42.7,29.91,South,180,4.5,9.2,63,0.00,,,0.00,WUHU216HW,2013-03-11 21:25:00,
2013-03-11 17:30:00,55.1,43.5,29.91,SSE,158,2.9,7.2,65,0.00,,,0.00,WUHU216HW,2013-03-11 21:30:00,
2013-03-11 17:35:00,54.9,42.9,29.91,SSE,158,4.5,7.2,64,0.00,,,0.00,WUHU216HW,2013-03-11 21:35:00,
2013-03-11 17:40:00,54.9,43.3,29.92,South,180,4.0,6.3,65,0.00,,,0.00,WUHU216HW,2013-03-11 21:40:00,
2013-03-11 17:45:00,54.7,43.6,29.92,SSE,158,2.5,7.4,66,0.00,,,0.00,WUHU216HW,2013-03-11 21:45:00,
2013-03-11 17:50:00,54.7,42.8,29.92,SSE,158,4.5,7.4,64,0.00,,,0.00,WUHU216HW,2013-03-11 21:50:00,
2013-03-11 17:55:00,54.7,43.1,29.92,South,180,6.3,6.9,65,0.00,,,0.00,WUHU216HW,2013-03-11 21:55:00,
2013-03-11 18:00:00,54.7,43.6,29.92,SW,225,3.4,6.9,66,0.00,,,0.00,WUHU216HW,2013-03-11 22:00:00,
2013-03-11 18:05:00,54.7,43.6,29.92,SSE,158,2.5,4.3,66,0.00,,,0.00,WUHU216HW,2013-03-11 22:05:00,
2013-03-11 18:10:00,54.9,43.8,29.92,SSE,158,4.5,4.5,66,0.00,,,0.00,WUHU216HW,2013-03-11 22:10:00,
2013-03-11 18:15:00,54.9,43.3,29.92,SE,135,4.0,5.1,65,0.00,,,0.00,WUHU216HW,2013-03-11 22:15:00,
2013-03-11 18:20:00,54.9,44.1,29.92,SSE,158,2.5,5.6,67,0.00,,,0.00,WUHU216HW,2013-03-11 22:20:00,
2013-03-11 18:25:00,54.9,44.1,29.91,SSE,158,3.4,5.6,67,0.00,,,0.00,WUHU216HW,2013-03-11 22:25:00,
2013-03-11 18:31:00,54.7,43.9,29.90,South,180,4.3,4.7,67,0.00,,,0.00,WUHU216HW,2013-03-11 22:31:00,
2013-03-11 18:36:00,54.7,43.9,29.90,South,180,3.4,4.7,67,0.00,,,0.00,WUHU216HW,2013-03-11 22:36:00,
2013-03-11 18:41:00,54.7,43.6,29.90,South,180,2.5,4.0,66,0.00,,,0.00,WUHU216HW,2013-03-11 22:41:00,
2013-03-11 18:46:00,54.7,44.7,29.90,SSW,203,2.7,3.4,69,0.00,,,0.00,WUHU216HW,2013-03-11 22:46:00,
2013-03-11 18:51:00,54.7,45.2,29.90,SSE,158,3.1,6.0,70,0.00,,,0.00,WUHU216HW,2013-03-11 22:51:00,
2013-03-11 18:56:00,54.5,44.6,29.90,WSW,248,2.7,6.0,69,0.00,,,0.00,WUHU216HW,2013-03-11 22:56:00,
2013-03-11 19:01:00,54.5,44.6,29.90,South,180,2.7,3.1,69,0.00,,,0.00,WUHU216HW,2013-03-11 23:01:00,
2013-03-11 19:06:00,54.5,45.0,29.90,SSE,158,2.2,3.8,70,0.00,,,0.00,WUHU216HW,2013-03-11 23:06:00,
2013-03-11 19:11:00,54.5,44.6,29.90,South,180,3.6,3.8,69,0.00,,,0.00,WUHU216HW,2013-03-11 23:11:00,
2013-03-11 19:16:00,54.5,44.6,29.90,South,180,2.5,6.0,69,0.00,,,0.00,WUHU216HW,2013-03-11 23:16:00,
2013-03-11 19:20:00,54.5,44.6,29.89,SSE,158,4.5,6.3,69,0.00,,,0.00,WUHU216HW,2013-03-11 23:20:00,
2013-03-11 19:25:00,54.5,44.6,29.90,South,180,4.3,6.3,69,0.00,,,0.00,WUHU216HW,2013-03-11 23:25:00,
2013-03-11 19:30:00,54.5,44.6,29.90,South,180,3.6,4.5,69,0.00,,,0.00,WUHU216HW,2013-03-11 23:30:00,
2013-03-11 19:35:00,54.7,45.6,29.90,SSE,158,3.4,4.5,71,0.00,,,0.00,WUHU216HW,2013-03-11 23:35:00,
2013-03-11 19:41:00,54.7,45.2,29.91,SSE,158,4.7,4.7,70,0.00,,,0.00,WUHU216HW,2013-03-11 23:41:00,
2013-03-11 19:46:00,54.9,45.7,29.90,SSE,158,3.4,6.3,71,0.00,,,0.00,WUHU216HW,2013-03-11 23:46:00,
2013-03-11 19:51:00,55.1,46.3,29.91,South,180,3.8,6.3,72,0.00,,,0.00,WUHU216HW,2013-03-11 23:51:00,
2013-03-11 19:56:00,55.1,46.3,29.91,SSE,158,2.7,6.3,72,0.00,,,0.00,WUHU216HW,2013-03-11 23:56:00,
2013-03-11 20:01:00,55.1,46.3,29.91,SSE,158,4.0,4.0,72,0.00,,,0.00,WUHU216HW,2013-03-12 00:01:00,
2013-03-11 20:06:00,55.1,45.5,29.91,SSE,158,3.1,4.0,70,0.00,,,0.00,WUHU216HW,2013-03-12 00:06:00,
2013-03-11 20:11:00,55.1,45.5,29.90,South,180,2.2,4.0,70,0.00,,,0.00,WUHU216HW,2013-03-12 00:11:00,
2013-03-11 20:16:00,55.1,45.5,29.89,SSW,203,2.9,3.1,70,0.00,,,0.00,WUHU216HW,2013-03-12 00:16:00,
2013-03-11 20:21:00,54.9,45.7,29.89,South,180,3.4,3.4,71,0.00,,,0.00,WUHU216HW,2013-03-12 00:21:00,
2013-03-11 20:26:00,54.7,45.2,29.89,SE,135,2.9,3.4,70,0.00,,,0.00,WUHU216HW,2013-03-12 00:26:00,
2013-03-11 20:31:00,54.7,45.6,29.88,SSE,158,3.6,3.8,71,0.00,,,0.00,WUHU216HW,2013-03-12 00:31:00,
2013-03-11 20:36:00,54.7,45.9,29.88,SSE,158,3.6,4.3,72,0.00,,,0.00,WUHU216HW,2013-03-12 00:36:00,
2013-03-11 20:41:00,54.7,45.6,29.89,SE,135,2.0,6.3,71,0.00,,,0.00,WUHU216HW,2013-03-12 00:41:00,
2013-03-11 20:46:00,54.7,45.6,29.89,SE,135,1.3,6.3,71,0.00,,,0.00,WUHU216HW,2013-03-12 00:46:00,
2013-03-11 20:51:00,54.7,45.6,29.89,SSE,158,5.6,5.6,71,0.00,,,0.00,WUHU216HW,2013-03-12 00:51:00,
2013-03-11 20:56:00,54.7,46.3,29.89,SSE,158,3.6,5.6,73,0.00,,,0.00,WUHU216HW,2013-03-12 00:56:00,
2013-03-11 21:01:00,54.7,45.9,29.89,South,180,2.2,4.7,72,0.00,,,0.00,WUHU216HW,2013-03-12 01:01:00,
2013-03-11 21:06:00,54.5,45.4,29.88,SSE,158,2.7,4.0,71,0.00,,,0.00,WUHU216HW,2013-03-12 01:06:00,
2013-03-11 21:11:00,54.5,45.4,29.88,SSW,203,2.2,4.5,71,0.00,,,0.00,WUHU216HW,2013-03-12 01:11:00,
2013-03-11 21:16:00,54.4,45.2,29.87,SE,135,3.4,4.5,71,0.00,,,0.00,WUHU216HW,2013-03-12 01:16:00,
2013-03-11 21:21:00,54.4,45.6,29.87,SE,135,2.0,4.3,72,0.00,,,0.00,WUHU216HW,2013-03-12 01:21:00,
2013-03-11 21:26:00,54.4,45.9,29.88,SSE,158,3.1,5.1,73,0.00,,,0.00,WUHU216HW,2013-03-12 01:26:00,
2013-03-11 21:31:00,54.4,45.6,29.88,SE,135,1.8,5.1,72,0.00,,,0.00,WUHU216HW,2013-03-12 01:31:00,
2013-03-11 21:36:00,54.2,45.0,29.87,SSE,158,2.7,5.4,71,0.00,,,0.00,WUHU216HW,2013-03-12 01:36:00,
2013-03-11 21:41:00,54.2,45.4,29.88,SE,135,1.1,5.4,72,0.00,,,0.00,WUHU216HW,2013-03-12 01:41:00,
2013-03-11 21:46:00,54.0,45.2,29.88,SSE,158,2.5,2.5,72,0.00,,,0.00,WUHU216HW,2013-03-12 01:46:00,
2013-03-11 21:50:00,54.0,45.2,29.88,SE,135,4.9,4.9,72,0.00,,,0.00,WUHU216HW,2013-03-12 01:50:00,
2013-03-11 21:56:00,54.0,45.2,29.88,SE,135,2.5,4.9,72,0.00,,,0.00,WUHU216HW,2013-03-12 01:56:00,
2013-03-11 22:01:00,54.0,45.6,29.88,SE,135,4.5,4.7,73,0.00,,,0.00,WUHU216HW,2013-03-12 02:01:00,
2013-03-11 22:06:00,54.0,45.6,29.88,SSW,203,2.9,4.5,73,0.00,,,0.00,WUHU216HW,2013-03-12 02:06:00,
2013-03-11 22:11:00,54.0,45.9,29.87,SSE,158,1.3,5.1,74,0.00,,,0.00,WUHU216HW,2013-03-12 02:11:00,
2013-03-11 22:16:00,54.2,45.7,29.87,SSE,158,2.5,5.1,73,0.00,,,0.00,WUHU216HW,2013-03-12 02:16:00,
2013-03-11 22:21:00,54.4,45.9,29.87,SSE,158,3.1,4.0,73,0.00,,,0.00,WUHU216HW,2013-03-12 02:21:00,
2013-03-11 22:26:00,54.5,46.1,29.86,SSE,158,4.0,4.0,73,0.00,,,0.00,WUHU216HW,2013-03-12 02:26:00,
2013-03-11 22:31:00,54.7,46.3,29.85,ESE,113,4.9,4.9,73,0.00,,,0.00,WUHU216HW,2013-03-12 02:31:00,
2013-03-11 22:36:00,54.7,46.6,29.84,South,180,4.7,5.6,74,0.00,,,0.00,WUHU216HW,2013-03-12 02:36:00,
2013-03-11 22:41:00,54.9,46.7,29.84,SSE,158,7.4,7.4,74,0.00,,,0.00,WUHU216HW,2013-03-12 02:41:00,
2013-03-11 22:46:00,54.9,46.7,29.84,East,90,9.2,9.2,74,0.00,,,0.00,WUHU216HW,2013-03-12 02:46:00,
2013-03-11 22:51:00,55.1,46.9,29.84,SE,135,5.4,9.2,74,0.00,,,0.00,WUHU216HW,2013-03-12 02:51:00,
2013-03-11 22:56:00,55.1,46.9,29.83,SSE,158,4.0,5.4,74,0.00,,,0.00,WUHU216HW,2013-03-12 02:56:00,
2013-03-11 23:01:00,54.9,47.1,29.83,SSE,158,2.9,4.7,75,0.00,,,0.00,WUHU216HW,2013-03-12 03:01:00,
2013-03-11 23:06:00,54.9,46.7,29.83,South,180,2.9,4.9,74,0.00,,,0.00,WUHU216HW,2013-03-12 03:06:00,
2013-03-11 23:11:00,54.7,46.9,29.83,SSW,203,3.1,4.9,75,0.00,,,0.00,WUHU216HW,2013-03-12 03:11:00,
2013-03-11 23:16:00,54.7,47.3,29.83,South,180,4.3,5.1,76,0.00,,,0.00,WUHU216HW,2013-03-12 03:16:00,
2013-03-11 23:21:00,54.7,47.3,29.83,SSW,203,8.3,8.3,76,0.00,,,0.00,WUHU216HW,2013-03-12 03:21:00,
2013-03-11 23:26:00,54.9,47.4,29.82,SE,135,3.1,8.3,76,0.00,,,0.00,WUHU216HW,2013-03-12 03:26:00,
2013-03-11 23:31:00,54.9,47.1,29.82,SSE,158,3.4,6.7,75,0.00,,,0.00,WUHU216HW,2013-03-12 03:31:00,
2013-03-11 23:36:00,54.7,46.9,29.82,South,180,4.7,8.9,75,0.00,,,0.00,WUHU216HW,2013-03-12 03:36:00,
2013-03-11 23:41:00,54.7,47.3,29.81,South,180,3.6,11.0,76,0.00,,,0.00,WUHU216HW,2013-03-12 03:41:00,
2013-03-11 23:46:00,54.7,47.3,29.81,SE,135,3.6,11.0,76,0.00,,,0.00,WUHU216HW,2013-03-12 03:46:00,
2013-03-11 23:51:00,54.7,47.3,29.81,SSE,158,5.4,5.8,76,0.00,,,0.00,WUHU216HW,2013-03-12 03:51:00,
2013-03-11 23:56:00,54.7,47.3,29.81,South,180,4.0,10.5,76,0.00,,,0.00,WUHU216HW,2013-03-12 03:56:00,